Погода в Теплоозёрске

Россия / Еврейская автономная область     49°00′23″N   131°51′48″E
темп.,
°C
ветер,
м/с
пор.,
м/с
влажн.,
%
обл.,
%
осадки,
мм/ч
давл.,
гПа
погр.,
м
11 апреля, вс
вс1101:00+5ююв1256100 0.0 101959
04:00+5в1159100 0.1 101815
07:00+5вюв1166100 0.1 101818
10:00+8зюз1255100 0.1 1019429
13:00+12зсз3545100 0.0 10181825
16:00+11зсз444797 0.1 10181571
19:00+10сз3639100 0.0 1019391
22:00+4с2354100 0.0 102071
12 апреля, пн
пн1201:00+3ссз1253100 0.0 101938
04:00+1ссз115995 0.0 101915
07:000с116592 0.0 101811
10:00+2св1277100 0.2 1016434
13:000в2597100 5.8 1013313
16:00+1всв2398100 8.5 1010166
19:00+1сз1299100 1.7 100897
22:00−1сз2499100 7.4 1008287
13 апреля, вт
вт1301:00−3зсз2593100 2.1 1008386
04:00−6зсз41085100 2.1 1008469
07:00−8зсз41183100 0.0 1008544
10:00−6сз6107591 0.0 1009896
13:00−3зсз6867100 0.1 10081627
16:00−3зсз6869100 0.1 10071723
19:00−4з5107999 0.3 10071018
22:00−6з4118091 0.3 1006454
14 апреля, ср
ср1401:00−7зсз4118092 0.0 1006471
04:00−8зсз4127919 0.0 1006603
07:00−8з3108763 0.0 1007485
10:00−4сз5869100 0.0 10081193
13:00−2зсз5865100 0.1 10081789
16:000зсз5865100 0.4 10091888
19:00−2з48759 0.3 1010864
22:00−9з119699 0.3 101310
15 апреля, чт
чт1501:00−10зсз009788 0.0 101410
04:00−12с119851 0.0 101510
07:00−10св1196100 0.0 101533
10:00−1вюв247335 0.0 1013460
13:00+3вюв5759100 0.0 10111098
16:00+4вюв51160100 0.0 10081356
19:00+3в61565100 0.1 1006782
22:00+1вюв61575100 0.4 10061025